Simultaneous Nadir Overpasses (SNOs) Predictions

Prediction of SNOs between AQUA and GOES-15 Satellite Orbit:

Table of predicted SNOs for the next 14.0 days since TLE Epoch: 6/30/2017
Index Date Time (AQUA) AQUA Lat,Lon GOES-15 Lat,Lon Distance(km) Time Diff (sec)
1 07/02/2017 10:25:35 -0.67,-132.65 -0.10,-135.43 315.52 80
2 07/02/2017 22:47:01 -0.37,-137.86 0.12,-135.46 272.42 80
3 07/04/2017 22:34:49 0.22,-134.90 0.12,-135.45 62.15 80
4 07/06/2017 22:22:38 0.87,-131.95 0.12,-135.43 396.09 80
5 07/07/2017 10:43:53 0.23,-137.10 -0.14,-135.39 194.39 80
6 07/09/2017 10:31:42 -0.42,-134.15 -0.14,-135.36 138.69 80
7 07/09/2017 22:53:07 -0.66,-139.35 0.16,-135.38 450.34 80
8 07/11/2017 10:19:30 -1.01,-131.18 -0.14,-135.33 471.25 80
9 07/11/2017 22:40:55 -0.06,-136.38 0.16,-135.35 117.76 80
10 07/13/2017 22:28:43 0.54,-133.42 0.16,-135.31 214.26 80
11 07/14/2017 10:49:59 0.52,-138.59 -0.18,-135.28 376.19 80




NCC Satellite Simultaneous Nadir Overpasses (SNOs) Prediction Service
